When you browse on this site, cookies collect data to enhance your experience and personalize the content and advertising you see.
Visit our Privacy Policy to learn more. By continuing to use the site, you agree to this use of cookies and data.
  • In Österreich
  • Länderverzeichnis
  • Für 7 Tage
  • Wassertemperatur
  • Wetterkarte
  • News
  • Widgets
  • user-avatar
    Anmelden

    Stündliche Wetter Tecozautla

    Heute, 23 August, Freitag

    Zeit Temperatur Niederschläge Wind Luftdruck Luftfeuchtigkeit
    00:00 +20°C° 0 mm 1 m/S 622 mmHg 84%
    01:00 +19°C° 0 mm 1 m/S 622 mmHg 85%
    02:00 +19°C° 0 mm 1 m/S 622 mmHg 86%
    03:00 +19°C° 0 mm 1 m/S 621 mmHg 87%
    04:00 +18°C° 0 mm 1 m/S 621 mmHg 87%
    05:00 +18°C° 0 mm 1 m/S 621 mmHg 88%
    06:00 +19°C° 0 mm 1 m/S 622 mmHg 83%
    07:00 +21°C° 0 mm 1 m/S 622 mmHg 78%
    08:00 +22°C° 0 mm 1 m/S 623 mmHg 73%
    09:00 +24°C° 0 mm 2 m/S 623 mmHg 67%
    10:00 +25°C° 0 mm 2 m/S 623 mmHg 61%
    11:00 +27°C° 0 mm 2 m/S 624 mmHg 56%
    12:00 +27°C° 0.2 mm 2 m/S 623 mmHg 53%
    13:00 +28°C° 0.2 mm 2 m/S 623 mmHg 50%
    14:00 +29°C° 0.2 mm 3 m/S 623 mmHg 48%
    15:00 +28°C° 0.4 mm 3 m/S 622 mmHg 52%
    16:00 +27°C° 0.4 mm 3 m/S 622 mmHg 56%
    17:00 +26°C° 0.4 mm 3 m/S 622 mmHg 60%
    18:00 +25°C° 0.9 mm 3 m/S 622 mmHg 67%
    19:00 +22°C° 0.9 mm 3 m/S 622 mmHg 73%
    20:00 +20°C° 0.9 mm 2 m/S 622 mmHg 80%
    21:00 +20°C° 0 mm 2 m/S 622 mmHg 81%
    22:00 +20°C° 0 mm 1 m/S 622 mmHg 82%
    23:00 +20°C° 0 mm 1 m/S 622 mmHg 83%

    Morgen, 24 August, Samstag

    Zeit Temperatur Niederschläge Wind Luftdruck Luftfeuchtigkeit
    00:00 +19°C° 0 mm 1 m/S 622 mmHg 83%
    01:00 +19°C° 0 mm 1 m/S 622 mmHg 82%
    02:00 +19°C° 0 mm 1 m/S 621 mmHg 82%
    03:00 +19°C° 0 mm 1 m/S 621 mmHg 82%
    04:00 +18°C° 0 mm 1 m/S 621 mmHg 82%
    05:00 +18°C° 0 mm 1 m/S 621 mmHg 82%
    06:00 +20°C° 0 mm 1 m/S 622 mmHg 76%
    07:00 +21°C° 0 mm 1 m/S 623 mmHg 69%
    08:00 +23°C° 0 mm 1 m/S 624 mmHg 63%
    09:00 +24°C° 0 mm 1 m/S 624 mmHg 59%
    10:00 +26°C° 0 mm 1 m/S 624 mmHg 55%
    11:00 +27°C° 0 mm 1 m/S 624 mmHg 51%
    12:00 +27°C° 0.4 mm 1 m/S 623 mmHg 50%
    13:00 +28°C° 0.4 mm 1 m/S 623 mmHg 48%
    14:00 +28°C° 0.4 mm 1 m/S 623 mmHg 47%
    15:00 +27°C° 0.5 mm 1 m/S 622 mmHg 53%
    16:00 +26°C° 0.5 mm 1 m/S 622 mmHg 58%
    17:00 +25°C° 0.5 mm 2 m/S 621 mmHg 63%
    18:00 +24°C° 0.3 mm 1 m/S 622 mmHg 67%
    19:00 +23°C° 0.3 mm 1 m/S 622 mmHg 72%
    20:00 +22°C° 0.3 mm 1 m/S 623 mmHg 76%
    21:00 +22°C° 0.3 mm 1 m/S 623 mmHg 77%
    22:00 +21°C° 0.3 mm 1 m/S 623 mmHg 79%
    23:00 +19°C° 0.3 mm 0 m/S 622 mmHg 81%

    übermorgen, 25 August, Sonntag

    Zeit Temperatur Niederschläge Wind Luftdruck Luftfeuchtigkeit
    00:00 +18°C° 0 mm 0 m/S 622 mmHg 81%
    01:00 +18°C° 0 mm 0 m/S 621 mmHg 81%
    02:00 +20°C° 0 mm 1 m/S 621 mmHg 81%
    03:00 +19°C° 0 mm 1 m/S 621 mmHg 81%
    04:00 +19°C° 0 mm 1 m/S 621 mmHg 81%
    05:00 +19°C° 0 mm 1 m/S 621 mmHg 82%
    06:00 +20°C° 0 mm 1 m/S 622 mmHg 76%
    07:00 +22°C° 0 mm 1 m/S 622 mmHg 69%
    08:00 +24°C° 0 mm 1 m/S 623 mmHg 63%
    09:00 +25°C° 0 mm 1 m/S 623 mmHg 57%
    10:00 +27°C° 0 mm 1 m/S 623 mmHg 52%
    11:00 +28°C° 0 mm 2 m/S 624 mmHg 46%
    12:00 +29°C° 0 mm 2 m/S 623 mmHg 44%
    13:00 +29°C° 0 mm 2 m/S 623 mmHg 42%
    14:00 +30°C° 0 mm 2 m/S 622 mmHg 40%
    15:00 +29°C° 0.2 mm 2 m/S 622 mmHg 46%
    16:00 +28°C° 0.2 mm 2 m/S 622 mmHg 51%
    17:00 +27°C° 0.2 mm 2 m/S 621 mmHg 57%
    18:00 +26°C° 0.5 mm 2 m/S 621 mmHg 63%
    19:00 +25°C° 0.5 mm 1 m/S 622 mmHg 68%
    20:00 +23°C° 0.5 mm 1 m/S 622 mmHg 74%
    21:00 +23°C° 1.7 mm 1 m/S 622 mmHg 77%
    22:00 +22°C° 1.7 mm 1 m/S 622 mmHg 80%
    23:00 +22°C° 1.7 mm 1 m/S 622 mmHg 83%

    26 August, Montag

    Zeit Temperatur Niederschläge Wind Luftdruck Luftfeuchtigkeit
    00:00 +21°C° 0.6 mm 1 m/S 621 mmHg 83%
    01:00 +21°C° 0.6 mm 1 m/S 621 mmHg 82%
    02:00 +21°C° 0.6 mm 1 m/S 621 mmHg 82%
    03:00 +21°C° 0.1 mm 1 m/S 621 mmHg 82%
    04:00 +19°C° 0.1 mm 0 m/S 621 mmHg 82%
    05:00 +19°C° 0.1 mm 0 m/S 621 mmHg 82%
    06:00 +20°C° 0 mm 0 m/S 621 mmHg 76%
    07:00 +21°C° 0 mm 0 m/S 622 mmHg 70%
    08:00 +22°C° 0 mm 0 m/S 622 mmHg 64%
    09:00 +24°C° 0.2 mm 0 m/S 622 mmHg 59%
    10:00 +27°C° 0.2 mm 1 m/S 622 mmHg 54%
    11:00 +28°C° 0.2 mm 1 m/S 622 mmHg 50%
    12:00 +28°C° 0.6 mm 1 m/S 622 mmHg 49%
    13:00 +29°C° 0.6 mm 1 m/S 621 mmHg 48%
    14:00 +29°C° 0.6 mm 1 m/S 621 mmHg 47%
    15:00 +26°C° 2.3 mm 2 m/S 620 mmHg 59%
    16:00 +24°C° 2.3 mm 3 m/S 619 mmHg 71%
    17:00 +20°C° 2.3 mm 4 m/S 618 mmHg 83%
    18:00 +20°C° 2.5 mm 3 m/S 619 mmHg 83%
    19:00 +19°C° 2.5 mm 3 m/S 620 mmHg 83%
    20:00 +19°C° 2.5 mm 2 m/S 621 mmHg 84%
    21:00 +19°C° 0.1 mm 2 m/S 621 mmHg 84%
    22:00 +20°C° 0.1 mm 1 m/S 621 mmHg 85%
    23:00 +19°C° 0.1 mm 1 m/S 621 mmHg 85%

    27 August, Dienstag

    Zeit Temperatur Niederschläge Wind Luftdruck Luftfeuchtigkeit
    00:00 +19°C° 0 mm 1 m/S 621 mmHg 86%
    01:00 +19°C° 0 mm 1 m/S 621 mmHg 87%
    02:00 +17°C° 0 mm 0 m/S 620 mmHg 88%
    03:00 +19°C° 0 mm 1 m/S 620 mmHg 87%
    04:00 +19°C° 0 mm 1 m/S 620 mmHg 87%
    05:00 +19°C° 0 mm 1 m/S 621 mmHg 86%
    06:00 +20°C° 0 mm 1 m/S 621 mmHg 81%
    07:00 +21°C° 0 mm 1 m/S 622 mmHg 75%
    08:00 +22°C° 0 mm 1 m/S 622 mmHg 70%
    09:00 +23°C° 0 mm 2 m/S 622 mmHg 64%
    10:00 +25°C° 0 mm 2 m/S 622 mmHg 58%
    11:00 +26°C° 0 mm 2 m/S 623 mmHg 53%
    12:00 +27°C° 0 mm 3 m/S 622 mmHg 51%
    13:00 +27°C° 0 mm 3 m/S 622 mmHg 50%
    14:00 +28°C° 0 mm 3 m/S 621 mmHg 48%
    15:00 +27°C° 0.3 mm 4 m/S 621 mmHg 55%
    16:00 +26°C° 0.3 mm 4 m/S 621 mmHg 62%
    17:00 +25°C° 0.3 mm 4 m/S 621 mmHg 68%
    18:00 +24°C° 0.7 mm 3 m/S 621 mmHg 74%
    19:00 +21°C° 0.7 mm 3 m/S 622 mmHg 80%
    20:00 +20°C° 0.7 mm 2 m/S 622 mmHg 86%
    21:00 +21°C° 0.8 mm 1 m/S 622 mmHg 85%
    22:00 +21°C° 0.8 mm 1 m/S 623 mmHg 84%
    23:00 +21°C° 0.8 mm 1 m/S 623 mmHg 84%

    28 August, Mittwoch

    Zeit Temperatur Niederschläge Wind Luftdruck Luftfeuchtigkeit
    00:00 +21°C° 0.5 mm 1 m/S 623 mmHg 84%
    01:00 +20°C° 0.5 mm 1 m/S 622 mmHg 84%
    02:00 +20°C° 0.5 mm 1 m/S 622 mmHg 85%
    03:00 +19°C° 0.1 mm 1 m/S 622 mmHg 86%
    04:00 +19°C° 0.1 mm 1 m/S 622 mmHg 88%
    05:00 +16°C° 0.1 mm 0 m/S 622 mmHg 89%
    06:00 +18°C° 0.1 mm 0 m/S 623 mmHg 84%
    07:00 +19°C° 0.1 mm 0 m/S 623 mmHg 79%
    08:00 +20°C° 0.1 mm 0 m/S 624 mmHg 73%
    09:00 +23°C° 0.5 mm 1 m/S 624 mmHg 68%
    10:00 +25°C° 0.5 mm 1 m/S 624 mmHg 62%
    11:00 +26°C° 0.5 mm 2 m/S 624 mmHg 56%
    12:00 +27°C° 0.3 mm 3 m/S 624 mmHg 54%
    13:00 +27°C° 0.3 mm 3 m/S 623 mmHg 52%
    14:00 +28°C° 0.3 mm 4 m/S 623 mmHg 49%
    15:00 +27°C° 0.4 mm 4 m/S 623 mmHg 55%
    16:00 +26°C° 0.4 mm 4 m/S 623 mmHg 62%
    17:00 +23°C° 0.4 mm 4 m/S 622 mmHg 68%
    18:00 +22°C° 0.6 mm 3 m/S 622 mmHg 74%
    19:00 +21°C° 0.6 mm 3 m/S 623 mmHg 80%
    20:00 +20°C° 0.6 mm 2 m/S 623 mmHg 87%
    21:00 +20°C° 0.5 mm 1 m/S 623 mmHg 87%
    22:00 +20°C° 0.5 mm 1 m/S 623 mmHg 87%
    23:00 +20°C° 0.5 mm 1 m/S 623 mmHg 88%
    Mehr zeigen